Weather History for MMMZ - February, 2014

Change the Weather History Date:

Monday, February 3, 2014

  Actual Average Record
Temperature  
Mean Temperature 64 °F -  
Max Temperature 77 °F 78 °F 84 °F (2009)
Min Temperature 51 °F 51 °F 44 °F (2006)
Degree Days  
Heating Degree Days 1    
Growing Degree Days 14 (Base 50)    
Moisture  
Dew Point 52 °F    
Average Humidity 64    
Maximum Humidity 82    
Minimum Humidity 50    
Precipitation  
Precipitation 0.00 in - - ()
Sea Level Pressure  
Sea Level Pressure 29.90 in    
Wind  
Wind Speed 7 mph ()    
Max Wind Speed 14 mph    
Max Gust Speed -    
Visibility 11.5 miles    
Events      
Averages and records for this station are not official NWS values.
T = Trace of Precipitation, MM = Missing Value Source: Averaged Metar Reports

Daily Weather History Graph

Daily Weather History Graph

Search for Another Location

Airport or City:

Trip Planner

Search our weather history database for the weather conditions in past years. The results will help you decide how hot, cold, wet, or windy it might be!

Date:

Astronomy

Feb. 03, 2014 Rise Set
Actual Time 6:44 AM MST 5:54 PM MST
Civil Twilight 6:20 AM MST 6:17 PM MST
Nautical Twilight 5:53 AM MST 6:44 PM MST
Astronomical Twilight 5:27 AM MST 7:11 PM MST
Moon 9:23 AM MST (2/3) 10:07 PM MST (2/3)
Length of Visible Light 11h 56m
Length of Day
11h 09m
Waxing Crescent, 20% of the Moon is Illuminated
Feb 3
Waxing Crescent
Feb 6
First Quarter
Feb 14
Full
Feb 22
Last Quarter
Mar 1
New

Hourly Weather History & Observations

Time (MST) Temp. Dew Point Humidity Pressure Visibility Wind Dir Wind Speed Gust Speed Precip Events Conditions
12:42 AM 57.2 °F 48.2 °F 72% 29.88 in 10.0 mi NNE 5.8 mph - N/A   Clear
1:43 AM 55.4 °F 39.2 °F 54% 29.89 in 10.0 mi East 6.9 mph - N/A   Clear
2:48 AM 55.4 °F 46.4 °F 72% 29.88 in 10.0 mi NW 6.9 mph - N/A   Clear
3:43 AM 55.4 °F 48.2 °F 77% 29.87 in 10.0 mi NNE 8.1 mph - N/A   Clear
4:45 AM 53.6 °F 46.4 °F 77% 29.88 in 10.0 mi NNE 6.9 mph - N/A   Clear
5:46 AM 53.6 °F 46.4 °F 77% 29.88 in 10.0 mi ENE 6.9 mph - N/A   Clear
6:51 AM 51.8 °F 46.4 °F 82% 29.90 in 10.0 mi ENE 6.9 mph - N/A   Scattered Clouds
7:46 AM 57.2 °F 50.0 °F 77% 29.92 in 10.0 mi NNE 8.1 mph - N/A   Scattered Clouds
8:48 AM 64.4 °F 55.4 °F 73% 29.93 in 10.0 mi NE 6.9 mph - N/A   Scattered Clouds
9:44 AM 71.6 °F 55.4 °F 57% 29.94 in 12.0 mi WNW 8.1 mph - N/A   Mostly Cloudy
10:44 AM 75.2 °F 55.4 °F 50% 29.94 in 12.0 mi SSW 6.9 mph - N/A   Mostly Cloudy
11:48 AM 75.2 °F 57.2 °F 53% 29.92 in 15.0 mi SSW 10.4 mph - N/A   Mostly Cloudy
12:50 PM 75.2 °F 57.2 °F 53% 29.90 in 15.0 mi SW 9.2 mph - N/A   Mostly Cloudy
1:40 PM 77.0 °F 57.2 °F 50% 29.89 in 15.0 mi WSW 13.8 mph - N/A   Mostly Cloudy
2:41 PM 75.2 °F 57.2 °F 53% 29.86 in 15.0 mi SW 13.8 mph - N/A   Partly Cloudy
3:44 PM 75.2 °F 55.4 °F 50% 29.86 in 15.0 mi WSW 11.5 mph - N/A   Partly Cloudy
4:40 PM 73.4 °F 55.4 °F 53% 29.86 in 15.0 mi WSW 12.7 mph - N/A   Partly Cloudy
5:41 PM 69.8 °F 55.4 °F 60% 29.88 in 12.0 mi West 11.5 mph - N/A   Scattered Clouds
6:40 PM 69.8 °F 55.4 °F 60% 29.89 in 10.0 mi West 8.1 mph - N/A   Scattered Clouds
7:42 PM 66.2 °F 53.6 °F 64% 29.90 in 10.0 mi WNW 8.1 mph - N/A   Scattered Clouds
8:43 PM 62.6 °F 53.6 °F 72% 29.92 in 10.0 mi North 8.1 mph - N/A   Scattered Clouds
9:48 PM 62.6 °F 53.6 °F 72% 29.93 in 10.0 mi North 8.1 mph - N/A   Scattered Clouds
10:46 PM 64.4 °F 53.6 °F 68% 29.94 in 10.0 mi NW 6.9 mph - N/A   Scattered Clouds
11:40 PM 64.4 °F 53.6 °F 68% 29.92 in 10.0 mi NNE 8.1 mph - N/A   Scattered Clouds